Regional Weather Roundup
Issued by NWS

Home | Current Version | Previous Version | Graphics & Text | Print | Product List | Glossary On
Versions: 1 2 3 4 5 6 7 8 9 10 11 12 13 14 15 16 17 18 19 20 21 22 23 24 25 26 27 28 29 30 31 32 33 34 35 36 37 38 39 40 41 42 43 44 45 46 47 48 49 50
000
ASUS43 KFSD 310410
RWRSD

WEATHER ROUNDUP FOR SOUTH DAKOTA
NATIONAL WEATHER SERVICE SIOUX FALLS SD
1100 PM CDT MON MAY 30 2016

NOTE: "FAIR" INDICATES FEW OR NO CLOUDS BELOW 12,000 FEET WITH NO
SIGNIFICANT WEATHER AND/OR OBSTRUCTIONS TO VISIBILITY.


SDZ001>005-009-010-012>017-310500-
NORTHWEST AND NORTH CENTRAL SOUTH DAKOTA

CITY           SKY/WX    TMP DP  RH WIND       PRES   REMARKS
BUFFALO          N/A     49  43  80 NW12      29.94S
FAITH            N/A     52  44  74 NW20      29.93S
MOBRIDGE       CLOUDY    58  54  86 NW13      29.81R
$$

SDZ012>016-024>037-041>051-057-063-072>074-310500-
SOUTHWEST AND SOUTH CENTRAL SOUTH DAKOTA

CITY           SKY/WX    TMP DP  RH WIND       PRES   REMARKS
RAPID CTY ARPT CLEAR     52  41  66 NW18      29.99S
PIERRE         CLOUDY    58  55  90 W13       29.87R
CUSTER         CLOUDY    46  32  58 N12G20    30.04F
PHILIP         CLOUDY    56  48  74 W9        29.98R
PINE RIDGE     CLOUDY    53  48  83 E7        30.04R
WINNER         LGT RAIN  59  55  87 NW14      29.91R
$$

SDZ004>011-016>023-039-040-310500-
NORTHEAST SOUTH DAKOTA

CITY           SKY/WX    TMP DP  RH WIND       PRES   REMARKS
ABERDEEN       CLOUDY    59  56  89 NE9       29.77F
WATERTOWN      CLOUDY    72  55  55 SE7       29.74F
BROOKINGS      CLOUDY    69  57  65 SE12      29.75F
SISSETON         N/A     68  51  54 NW22      29.77R
$$

SDZ017-020-022-023-036>040-048>070-310500-
SOUTHEAST SOUTH DAKOTA

CITY           SKY/WX    TMP DP  RH WIND       PRES   REMARKS
SIOUX FALLS    CLOUDY    71  59  65 S22G29    29.78F
HURON          CLOUDY    64  58  80 W18G25    29.78R
CHAMBERLAIN    CLOUDY    64  58  83 NW13      29.87R
MITCHELL       CLOUDY    71  58  63 NW20G25   29.78R
YANKTON        CLOUDY    73  57  56 S14G22    29.76F THUNDER
$$

ABBREVIATIONS USED IN REMARKS
   TC - TEMPERATURE IN CELSIUS
  WCI - WIND CHILL INDEX
   HX - HEAT INDEX
  VSB - VISIBILITY




USA.gov is the U.S. government's official web portal to all federal, state and local government web resources and services.